loading
|

THOR ABLESTAR DEB, 121

Orbit data source: Space-Track

THOR ABLESTAR DEB, 121 is space debris in LEO originally from a launch on Thu, 29 Jun 1961 UTC launched from the Air Force Eastern Test Range (AFETR). Debris objects in space refer to the collection of defunct objects orbiting the Earth. Examples of debris include non-operational satellites, rocket bodies, and fragments generated from explosions, collisions, or faulty payload assembly.

Loading next visibility...
Loading greatness...
THOR ABLESTAR DEB details
Identifier
121, 1961-015F
Orbit
LEO
Last TLE update15 hours ago
Origin
Flag of USUSAF SSD (US)
ManufacturerUnknown
Mission statusUnknown
MissionUnknown
Bus & MotorUnknown
MassUnknown
Launch date (UTC)
1961-06-29 (63 years ago)
Launch vehicleUnknown
Launch site
Air Force Eastern Test Range (AFETR)
Object type
Payload
Rocket body
Debris
Radar Cross SectionMedium (>0.1 m² and <1 m²)

Expand to show TLE details & history

TLE from 15 hours ago
0 THOR ABLESTAR DEB
1   121U 61015F   24251.14631088  .00000348  00000-0  28084-3 0  9992
2   121  66.7464 212.2222 0086017  98.6887 262.3951 14.00004627235631
Epoch: 2024-09-07T03:30Z
Definitive object data (Epoch: 2024-09-07T03:30:41.26Z)
Latitude-0.00004°
Longitude172.84158°
Altitude904.667 km
Speed7.396 km/s
True Right ascension14h 08m 53s
True Declination0° 00' 00"
Sunlit
Object was in daylight at TLE epoch
Predictive object data (real-time)
Latitude-9.46475°
Longitude-4.58435°
Altitude899.09 km
Speed7.402 km/s
Apparent Right ascension00h 42m 55s
Apparent Declination-26° 38' 55"
Sunlit
Object is in full shadow
Predictive observer data (real-time)
Local Sidereal Time10:16:09
Azimuth282.24° WNW
Elevation-56.875°
Doppler factor1
Orbital elements
Apogee954.708 km
Perigee829.634 km
Semi-major axis7,270.308 km
Eccentricity0.0086017
Inclination66.7464°
RAAN212.2222°
Arg. of periapsis98.6887°
True anomaly261.41952°
Mean anomaly262.3951°
Eccentric anomaly261.90717°
Mean motion3.50118 °/min
BSTAR0.00028084
Period102.82 mins
No data available

THOR ABLESTAR DEB Visibility forecast

Observer location: 39.9160978°, -105.1181434

THOR ABLESTAR DEB is not visible in the next 10 days
Span
Click to sort rows by Start time (UTC) header in descending order
Start Az.
Max El. time (UTC)
Max El. Az.
Max El.
End time (UTC)
End Az.